Location: Avenches
(46.8809°N, 7.0410°E)
Time: 01:26:48
(UTC+00:00)

Cosmos 1953 - Pass Details

Date: 30 March 2020
Orbit: 539 x 557 km, 82.5° (Epoch: 30 May)

Event Time Altitude Azimuth Distance (km) Brightness Sun altitude
Exits shadow 20:21:03 12° 215° (SW) 1,678 4.8 -23.3°
Maximum altitude 20:24:29 40° 284° (WNW) 809 3.6 -23.8°
Drops below altitude 10° 20:28:15 10° 355° (N) 1,818 5.5 -24.3°
Sets 20:30:32 0° 3° (N) 2,718 6.3 -24.6°
